TimeCST,TemperatureF,Dew PointF,Humidity,Sea Level PressureIn,VisibilityMPH,Wind Direction,Wind SpeedMPH,Gust SpeedMPH,PrecipitationIn,Events,Conditions,WindDirDegrees,DateUTC
12:15 AM,39.2,35.6,87,30.07,10.0,NNW,8.1,-,N/A,,Clear,330,2012-11-20 06:15:00
12:35 AM,39.2,35.6,87,30.08,10.0,NW,8.1,-,N/A,,Clear,320,2012-11-20 06:35:00
12:55 AM,37.4,33.8,87,30.08,10.0,NNW,5.8,-,N/A,,Clear,330,2012-11-20 06:55:00
1:15 AM,37.4,33.8,87,30.07,10.0,NNW,3.5,-,N/A,,Clear,340,2012-11-20 07:15:00
1:35 AM,37.4,33.8,87,30.07,10.0,NNW,6.9,-,N/A,,Clear,330,2012-11-20 07:35:00
1:55 AM,35.6,33.8,93,30.08,7.0,NNW,5.8,-,N/A,,Clear,340,2012-11-20 07:55:00
2:15 AM,35.6,33.8,93,30.08,7.0,NNW,8.1,-,N/A,,Clear,340,2012-11-20 08:15:00
2:35 AM,35.6,33.8,93,30.09,7.0,NNW,8.1,-,N/A,,Clear,330,2012-11-20 08:35:00
6:15 AM,32.0,32.0,100,30.12,4.0,NNW,5.8,-,N/A,,Clear,340,2012-11-20 12:15:00
6:35 AM,32.0,32.0,100,30.14,4.0,NW,4.6,-,N/A,,Clear,320,2012-11-20 12:35:00
6:55 AM,32.0,30.2,93,30.14,4.0,Calm,Calm,-,N/A,,Clear,0,2012-11-20 12:55:00
7:15 AM,32.0,30.2,93,30.14,2.0,NNW,4.6,-,N/A,,Clear,340,2012-11-20 13:15:00
7:35 AM,32.0,30.2,93,30.14,2.0,NNW,3.5,-,N/A,,Clear,340,2012-11-20 13:35:00
7:55 AM,30.2,28.4,93,30.15,1.5,WNW,4.6,-,N/A,,Mist,300,2012-11-20 13:55:00
8:15 AM,32.0,30.2,93,30.16,2.0,WNW,3.5,-,N/A,,Clear,300,2012-11-20 14:15:00
8:35 AM,32.0,32.0,100,30.16,2.0,WNW,3.5,-,N/A,,Clear,300,2012-11-20 14:35:00
8:55 AM,33.8,32.0,93,30.16,3.0,NW,4.6,-,N/A,,Clear,310,2012-11-20 14:55:00
9:15 AM,33.8,32.0,93,30.16,4.0,WNW,4.6,-,N/A,,Clear,300,2012-11-20 15:15:00
9:35 AM,35.6,33.8,93,30.17,4.0,WNW,4.6,-,N/A,,Clear,300,2012-11-20 15:35:00
9:55 AM,35.6,33.8,93,30.17,5.0,WNW,4.6,-,N/A,,Clear,300,2012-11-20 15:55:00
10:15 AM,37.4,33.8,87,30.18,7.0,WNW,6.9,-,N/A,,Clear,300,2012-11-20 16:15:00
10:35 AM,37.4,35.6,93,30.18,4.0,WNW,4.6,-,N/A,,Clear,290,2012-11-20 16:35:00
10:55 AM,41.0,35.6,81,30.17,7.0,West,4.6,-,N/A,,Clear,280,2012-11-20 16:55:00
11:15 AM,42.8,35.6,76,30.16,7.0,NW,3.5,-,N/A,,Clear,320,2012-11-20 17:15:00
11:35 AM,44.6,35.6,71,30.16,10.0,NW,3.5,-,N/A,,Clear,320,2012-11-20 17:35:00
11:55 AM,46.4,35.6,66,30.15,10.0,NW,5.8,-,N/A,,Clear,320,2012-11-20 17:55:00
12:15 PM,50.0,35.6,58,30.14,10.0,NNW,4.6,-,N/A,,Clear,340,2012-11-20 18:15:00
12:35 PM,50.0,35.6,58,30.14,10.0,NW,5.8,-,N/A,,Clear,310,2012-11-20 18:35:00
12:55 PM,51.8,35.6,54,30.14,10.0,Calm,Calm,-,N/A,,Clear,0,2012-11-20 18:55:00
1:15 PM,51.8,35.6,54,30.13,10.0,NW,3.5,-,N/A,,Clear,310,2012-11-20 19:15:00
1:35 PM,53.6,33.8,47,30.13,10.0,West,3.5,-,N/A,,Clear,270,2012-11-20 19:35:00
2:15 PM,55.4,32.0,41,30.12,10.0,West,6.9,-,N/A,,Clear,270,2012-11-20 20:15:00
2:35 PM,55.4,30.2,38,30.12,10.0,West,5.8,-,N/A,,Clear,270,2012-11-20 20:35:00
2:55 PM,55.4,28.4,36,30.12,10.0,West,4.6,-,N/A,,Clear,270,2012-11-20 20:55:00
3:15 PM,55.4,26.6,33,30.12,10.0,West,3.5,-,N/A,,Clear,270,2012-11-20 21:15:00
3:55 PM,53.6,28.4,38,30.12,10.0,West,3.5,-,N/A,,Clear,280,2012-11-20 21:55:00
4:15 PM,51.8,28.4,41,30.13,10.0,WNW,3.5,-,N/A,,Clear,290,2012-11-20 22:15:00
4:35 PM,50.0,28.4,43,30.13,10.0,Calm,Calm,-,N/A,,Clear,0,2012-11-20 22:35:00
4:55 PM,46.4,28.4,50,30.13,10.0,Calm,Calm,-,N/A,,Clear,0,2012-11-20 22:55:00
5:15 PM,37.4,28.4,70,30.12,10.0,Calm,Calm,-,N/A,,Clear,0,2012-11-20 23:15:00
5:35 PM,35.6,28.4,75,30.13,10.0,Calm,Calm,-,N/A,,Clear,0,2012-11-20 23:35:00
5:55 PM,35.6,26.6,70,30.13,10.0,Calm,Calm,-,N/A,,Clear,0,2012-11-20 23:55:00
6:15 PM,33.8,30.2,87,30.13,10.0,Calm,Calm,-,N/A,,Clear,0,2012-11-21 00:15:00
6:35 PM,33.8,28.4,81,30.13,10.0,Calm,Calm,-,N/A,,Clear,0,2012-11-21 00:35:00
6:55 PM,33.8,28.4,81,30.13,10.0,SE,3.5,-,N/A,,Clear,140,2012-11-21 00:55:00
7:15 PM,32.0,28.4,87,30.12,10.0,SE,3.5,-,N/A,,Clear,140,2012-11-21 01:15:00
7:35 PM,32.0,26.6,80,30.12,10.0,SE,5.8,-,N/A,,Clear,140,2012-11-21 01:35:00
7:55 PM,32.0,28.4,87,30.12,10.0,SE,3.5,-,N/A,,Clear,140,2012-11-21 01:55:00
8:15 PM,33.8,28.4,81,30.12,10.0,Calm,Calm,-,N/A,,Clear,0,2012-11-21 02:15:00
8:35 PM,32.0,28.4,87,30.12,10.0,SE,4.6,-,N/A,,Clear,130,2012-11-21 02:35:00
8:55 PM,32.0,26.6,80,30.12,10.0,SE,4.6,-,N/A,,Clear,140,2012-11-21 02:55:00
9:15 PM,33.8,28.4,81,30.13,10.0,SSE,3.5,-,N/A,,Clear,150,2012-11-21 03:15:00
9:35 PM,32.0,28.4,87,30.12,10.0,SE,4.6,-,N/A,,Clear,140,2012-11-21 03:35:00
9:55 PM,32.0,28.4,87,30.12,10.0,South,3.5,-,N/A,,Clear,170,2012-11-21 03:55:00
10:15 PM,33.8,28.4,81,30.11,10.0,South,3.5,-,N/A,,Clear,170,2012-11-21 04:15:00
10:35 PM,32.0,28.4,87,30.10,10.0,South,4.6,-,N/A,,Clear,170,2012-11-21 04:35:00
10:55 PM,33.8,30.2,87,30.10,10.0,SSE,4.6,-,N/A,,Clear,160,2012-11-21 04:55:00
11:15 PM,33.8,30.2,87,30.10,10.0,SSE,3.5,-,N/A,,Clear,150,2012-11-21 05:15:00
11:35 PM,35.6,30.2,81,30.09,10.0,SSE,4.6,-,N/A,,Clear,150,2012-11-21 05:35:00
11:55 PM,33.8,30.2,87,30.09,10.0,SSE,4.6,-,N/A,,Clear,160,2012-11-21 05:55:00